Flag for Canada Weather past 2 weeks in Clarington, Ontario, Canada

59 °F


Feels Like: 57 °F
Forecast: N/A
Wind: 12 mph from Southeast

Location: Peterborough Airport

Current Time: Oct 4, 2015 at 4:40:34 PM

Latest Report: Oct 4, 2015 at 4:00 PM

Visibility: 9 mi

Pressure: 30.29 "Hg

Humidity: 55%

Dew point: 43 °F

Location of ClaringtonLocation

Historic Weather in Clarington — Graph


Clarington temperature yesterday

Maximum temperature yesterday: 54 °F (at 4:00 PM)
Minimum temperature yesterday: 41 °F (at 6:00 AM)
Average temperature yesterday: 47 °F

Past Weeks' High & Low Weather Summary

High75 °F (Sep 23, 1:57 PM)100% (Sep 20, 6:00 AM)30.51 "Hg (Sep 20, 6:00 AM)
Low37 °F (Sep 22, 4:57 AM)35% (Sep 26, 5:00 PM)29.61 "Hg (Sep 19, 4:04 PM)
Average55 °F76%30.27 "Hg
* Reported Sep 19 3:00 PM — Oct 4 3:00 PM, Clarington, Weather by CustomWeather, © 2015

Note: Actual official high and low records may vary slightly from our data, if they occured in-between our weather recording intervals... More about our weather records


Clarington weather history for previous 24 hours

Time TempWeatherWind HumidityBarometerVisibility
3:00 PM
Sun, Oct 4
61 °FScattered clouds.8 mph55%30.30 "Hg9 mi
2:00 PM57 °FMore clouds than sun.6 mph59%30.32 "Hg9 mi
1:00 PM57 °FOvercast.8 mph59%30.34 "Hg9 mi
12:00 PM57 °FMostly cloudy.10 mph63%30.35 "Hg9 mi
11:00 AM55 °FMore clouds than sun.13 mph63%30.36 "Hg9 mi
10:00 AM54 °FOvercast.13 mph67%30.38 "Hg9 mi
9:00 AM48 °FOvercast.7 mph76%30.39 "Hg9 mi
8:00 AM48 °FOvercast.9 mph76%30.39 "Hg9 mi
7:00 AM48 °FOvercast.8 mph76%30.37 "Hg9 mi
6:00 AM48 °FMostly cloudy.8 mph71%30.37 "Hg9 mi
5:00 AM48 °FOvercast.5 mph71%30.38 "Hg9 mi
4:00 AM48 °FOvercast.7 mph71%30.37 "Hg9 mi
3:00 AM48 °FOvercast.8 mph66%30.38 "Hg9 mi
2:00 AM48 °FOvercast.7 mph66%30.40 "Hg9 mi
1:00 AM48 °FOvercast.8 mph66%30.40 "Hg9 mi
12:00 AM48 °FOvercast.8 mph66%30.41 "Hg9 mi
11:00 PM
Sat, Oct 3
48 °FOvercast.8 mph66%30.42 "Hg9 mi
10:00 PM48 °FMostly cloudy.14 mph66%30.43 "Hg9 mi
9:00 PM48 °FLight rain. Overcast.8 mph66%30.45 "Hg9 mi
8:00 PM50 °FLight rain. Overcast.9 mph58%30.43 "Hg9 mi
7:00 PM50 °FLight rain. Overcast.15 mph58%30.43 "Hg9 mi
6:58 PM50 °FLight rain. Overcast.14 mph58%30.43 "Hg9 mi
6:00 PM52 °FOvercast.13 mph50%30.42 "Hg9 mi
5:00 PM52 °FMostly cloudy.18 mph47%30.42 "Hg9 mi
4:00 PM54 °FPartly sunny.18 mph44%30.42 "Hg9 mi
Weather by CustomWeather, © 2015

See weather overviewHow to use our weather pages